Weather in Gorki

Russia / Yaroslavl Oblast     56°39′14″N   39°17′05″E
temp.,
°C
wind,
m/s
gust,
m/s
humid.,
%
clouds,
%
prec.,
mm/h
press.,
hPa
HPBL,
m
2 august, mon
mon200:00+17ssw4896100 0.0 1010149
03:00+17sw3594100 0.0 101085
06:00+18ssw2488100 0.0 1009104
09:00+24s356283 0.0 1009503
12:00+28s565271 0.0 10081408
15:00+30ssw6941100 0.0 10062286
18:00+28sse4851100 0.0 1004417
21:00+25sse6145421 0.0 1002402
3 august, tue
tue300:00+19sw2293100 3.2 100333
03:00+18wsw3891100 3.6 1003384
06:00+17wsw59929 0.0 1006586
09:00+18w4671100 0.1 1007840
12:00+23wsw56435 0.0 10081503
15:00+25wsw5740100 0.0 10082478
18:00+21w495422 0.1 1008621
21:00+17wsw412681 0.1 1010294
4 august, wed
wed400:00+14wsw38720 0.0 1011125
03:00+13w35790 0.0 101285
06:00+13w35792 0.0 1014138
09:00+20nw34550 0.0 1014750
12:00+23wnw444392 0.0 10152250
15:00+21nw2347100 0.0 1015911
18:00+20wnw235447 0.0 1015158
21:00+16wsw227299 0.0 101621
5 august, thu
thu500:00+16wsw1267100 0.0 101717
03:00+16n127499 0.0 101822
06:00+15n257084 0.1 1018186
09:00+17e356096 0.6 1019319
12:00+21ese3249100 0.1 10181159
15:00+22e2145100 0.1 10181481
18:00+21e4446100 0.0 10171261
21:00+14ssw3495100 2.3 1019110
6 august, fri
fri600:00+13ene349427 1.3 101977
03:00+12ne22938 1.3 101931
06:00+13ene239123 0.0 102080
09:00+18e34680 0.0 1020583
12:00+23ese454019 0.0 10191773
15:00+24ese55356 0.0 10182063
18:00+23se3542100 0.0 10181609
21:00+18ese51259100 0.0 1019388